Starlink 32765

operational
NORAD ID: 62747 Int'l Des: 2025-014 Owner: SPXS Country: US Constellation: starlink
LEOCIRCULAR

Starlink 32765について

説明を読み込み中...

リアルタイム位置

3D地球を読み込み中...

次回通過

高度履歴

Altitude vs Time

uPlot chart will show altitude changes over time

軌道要素

1 62747U 25014N 25258.17392706 .00055301 00000-0 20002-2 0 9995
2 62747 43.0056 65.6840 0001868 269.1263 90.9375 15.27643355 36415
Epoch: Sep 15, 2025 • Age: 26 hours

現在のステータス

高度 486.9 km
速度 7.62 km/s
衛星直下点 -21.53°S, 175.9°E
打ち上げ日 Jan 21, 2025
運用期間 0.6 years
タイプ internet

技術仕様

分類 Payload
質量 730.00 kg
乾燥質量 700.00 kg
総質量 730.00 kg
長さ 0.30 m
直径 4.10 m
スパン 29.00 m
形状 Box + pan
製造者 SPXS
バスタイプ Starlink V2M
フェーズステータス In Orbit
所有者/国 SPXS/US

大規模コンステレーション

Loading constellations...